User: anonymous   Login
Location: Unspecified
(47.2500°N, 0.0000°E)
Time: 22:52:30
(UTC+00:00)
Language:

Hubble Space Telescope - Orbit

View from above orbital plane
View from above orbital plane
View from above satellite
View from above satellite

Ground track
Ground track

The orbit data is extracted from the following two-line orbital elements,

1 20580U 90037B   19166.24177080  .00000354  00000-0  10605-4 0  9994
2 20580  28.4685 234.7520 0002950  87.0334 337.3950 15.09235739400361
Epoch (UTC): 15 June 2019 05:48:08
Eccentricity: 0.0002950
inclination: 28.4685°
perigee height: 536 km
apogee height: 540 km
right ascension of ascending node: 234.7520°
argument of perigee: 87.0334°
revolutions per day: 15.09235739
mean anomaly at epoch: 337.3950°
orbit number at epoch: 40036

The dashed part of the orbit path shows where the satellite is in the earth's shadow,  

DLR